Alejandro Lucero

Olheiro-Chefe - Estudiantes
8 Nov 2026
Domingo
Processo

Personalidade

Adaptabilidade (4) Ambição (5) Controvérsia (18) Lealdade (11) Pressão (1) Profissionalismo (5) Espírito Esportivo (6) Temperamento (1)

Perfil

Estilo de Treinamento Democrático
Licença Nacional A
Determinação 4
Gestão de Pessoas 6
Motivação 2
Disciplina 7
Satisfação no Trabalho
67%
Fadiga
0%
Função Olheiro-Chefe
Salário 26.4K p/s
Contrato 14.03.2030

Desempenho

Comportamento Bom
Eficácia do Treinamento
11%
Desenvolvimento do Jogador
35%
Prevenção de Lesões
15%
Implementação Tática
30%

Eventos Recentes

Avaliou um jogador agora
Avaliou um jogador agora
Avaliou um jogador agora
Avaliou um jogador agora
Avaliou um jogador 7d atrás
Avaliou um jogador 7d atrás
Avaliou um jogador 7d atrás
Avaliou um jogador 7d atrás

Monitorando agora

150
Jogador Clube Status Habilidade Confiança Observado Última observação Último voto
Mauro Osores San Martín SJ Ativo 102 / 128 40% 1 07.11.2026 -
Valentín Serrano Arsenal Ativo 98 / 121 40% 1 07.11.2026 -
Ezequiel Herrera San Lorenzo Ativo 127 / 116 40% 1 06.11.2026 -
Lautaro Rivero River Plate Ativo 111 / 142 40% 1 06.11.2026 -
César Olmedo Olimpia Ativo 91 / 112 40% 1 05.11.2026 -
Juan Salas Patronato Ativo 108 / 112 40% 1 05.11.2026 -
César Magallan Estudiantes de Merida Ativo 106 / 101 40% 1 05.11.2026 -
Alexei Dominguez Pachuca Ativo 90 / 115 40% 1 05.11.2026 -
Marco Miori Alvarado Ativo 102 / 105 40% 1 04.11.2026 -
Santiago González Sporting Cristal Ativo 112 / 128 40% 1 04.11.2026 -
Léyder Morán Once Caldas Ativo 91 / 99 40% 2 02.11.2026 -
Carlos Faya Deportivo La Guaira Ativo 120 / 104 40% 1 02.11.2026 -
George Ayine Metropolitanos Ativo 96 / 85 40% 1 30.10.2026 -
Alejo Tabares All Boys Ativo 121 / 103 40% 1 30.10.2026 -
Cristhián Rivas Estudiantes de Merida Ativo 106 / 118 40% 1 28.10.2026 -
Aiden O'Neill New York City Ativo 113 / 92 40% 1 28.10.2026 -
Yuri Casermeiro Central Córdoba SdE Ativo 121 / 119 40% 1 27.10.2026 -
Lautaro Lusnig Deportivo Tachira Ativo 113 / 123 40% 1 27.10.2026 -
Agustín da Silveira Sportivo Trinidense Ativo 111 / 116 40% 1 26.10.2026 -
Facundo Miño Deportivo Riestra Ativo 109 / 111 40% 1 26.10.2026 -
Lautaro Blanco Boca Juniors Ativo 122 / 124 40% 2 25.10.2026 -
Fernando Bersano Madryn Ativo 132 / 108 40% 2 25.10.2026 -
Antonio Castillo Cobresal Ativo 117 / 122 40% 1 24.10.2026 -
Enzo Silcan Almagro Ativo 128 / 103 40% 1 23.10.2026 -
Elías Calderón Central Norte Ativo 123 / 110 40% 1 22.10.2026 -
Axel Herrera Santiago Wanderers Ativo 94 / 97 40% 1 22.10.2026 -
Federico Pérez Agropecuario Argentino Ativo 116 / 99 40% 1 21.10.2026 -
Diego Monreal Audax Italiano Ativo 101 / 85 40% 1 20.10.2026 -
Tomás Jacob Atlanta United FC Ativo 109 / 107 40% 1 20.10.2026 -
Damián Adín San Miguel Ativo 111 / 109 40% 1 19.10.2026 -
Duván Viáfara Tigres Ativo 94 / 91 40% 1 19.10.2026 -
Germán Guiffrey Gimnasia y Esgrima Ativo 107 / 96 40% 3 17.10.2026 -
Guillermo Enrique Huracán Ativo 120 / 102 40% 1 17.10.2026 -
Juan Pablo De la Reta Maipú Ativo 117 / 113 40% 1 16.10.2026 -
Luciano Paredes Maipú Ativo 91 / 115 40% 1 16.10.2026 -
Tobías Bovone Deportivo Pereira Ativo 110 / 92 40% 2 15.10.2026 -
Nicolás Rodríguez Oriental Ativo 81 / 76 40% 1 15.10.2026 -
Stefano Fernández Alianza Atletico Ativo 97 / 98 40% 1 14.10.2026 -
Erico Cuello Defensor Sporting Ativo 110 / 102 40% 1 14.10.2026 -
Eduardo Fereira Caracas Ativo 103 / 98 40% 2 13.10.2026 -
Juan Ignacio Méndez Instituto Ativo 113 / 118 40% 1 13.10.2026 -
Julián Aude LA Galaxy Ativo 108 / 113 40% 1 12.10.2026 -
Felipe Ogaz O'Higgins Ativo 101 / 98 40% 1 12.10.2026 -
Ezequiel Neira Carabobo Ativo 119 / 105 40% 2 11.10.2026 -
Agustín Ojeda Chaco For Ever Ativo 116 / 101 40% 1 11.10.2026 -
Andrés Perea New York City Ativo 127 / 137 40% 1 10.10.2026 -
Brian Nievas Chaco For Ever Ativo 111 / 123 40% 1 10.10.2026 -
Jefferson Churi Alianza Lima Ativo 94 / 106 40% 1 10.10.2026 -
Luis Iberico Sporting Cristal Ativo 124 / 114 40% 1 10.10.2026 -
José Rondón Caracas Ativo 90 / 70 40% 1 09.10.2026 -
Daniel Tarazona Deportivo Municipal Ativo 82 / 78 40% 1 09.10.2026 -
Josen Escobar America de Cali Ativo 107 / 116 40% 1 07.10.2026 -
Matías Núñez Carabobo Ativo 112 / 115 40% 1 06.10.2026 -
Alam Garcete General Caballero Ativo 85 / 84 40% 1 06.10.2026 -
Jeriel De Santis Caracas Ativo 95 / 97 40% 1 06.10.2026 -
Hugo Martínez Libertad Ativo 115 / 120 40% 1 03.10.2026 -
Mauricio Cuevas Santos Laguna Ativo 117 / 120 40% 1 03.10.2026 -
Luis Olivera Defensores Unidos Ativo 125 / 118 40% 1 02.10.2026 -
Felipe Espinoza Iquique Ativo 95 / 100 40% 1 30.09.2026 -
Rafael Fernández Tijuana Ativo 95 / 100 40% 1 30.09.2026 -
Adalberto Peñaranda Deportivo Tachira Ativo 108 / 104 40% 1 30.09.2026 -
Germán Cervera Alvarado Ativo 110 / 109 40% 1 30.09.2026 -
Idan Toklomati Charlotte Football Club Ativo 118 / 122 40% 2 26.09.2026 -
Alejandro Villarreal Caracas Ativo 84 / 93 40% 1 26.09.2026 -
Matías Machado Racing Ativo 114 / 105 40% 1 26.09.2026 -
Bruno Palazzo Nueva Chicago Ativo 101 / 99 40% 1 26.09.2026 -
Cristian Díaz Zamora Ativo 91 / 108 40% 1 25.09.2026 -
Juan Pablo Rodríguez LA Galaxy Ativo 89 / 87 40% 1 25.09.2026 -
Enzo Larrosa Independiente Medellin Ativo 98 / 104 40% 1 24.09.2026 -
Pablo Cáceres Morón Ativo 102 / 102 40% 1 24.09.2026 -
Mateo Argüello Miramar Misiones Ativo 89 / 91 40% 2 22.09.2026 -
Andrés Micolta Pachuca Ativo 121 / 114 40% 1 22.09.2026 -
Diego Magallanes Defensores Ativo 117 / 122 40% 1 21.09.2026 -
Diego Hernández Aguilas Doradas Ativo 116 / 110 40% 1 21.09.2026 -
Agustín Pinheiro Progreso Ativo 115 / 104 40% 2 20.09.2026 -
Santiago Simón Toluca Ativo 105 / 110 40% 1 20.09.2026 -
Alejandro Cuadrado Atletico Venezuela Ativo 103 / 119 40% 2 19.09.2026 -
Pedro Vite Pumas UNAM Ativo 140 / 105 40% 1 19.09.2026 -
Fernando Álvarez Deportivo Cali Ativo 103 / 105 40% 1 18.09.2026 -
Juan Díaz Universidad Catolica Ativo 108 / 130 40% 1 18.09.2026 -
Erik de los Santos Racing Ativo 113 / 114 40% 2 17.09.2026 -
Nicolás Rengifo Deportivo Pereira Ativo 80 / 97 40% 1 17.09.2026 -
Jimmy Congo Union Magdalena Ativo 110 / 117 40% 1 16.09.2026 -
Emanuel Cecchini Juventud Ativo 118 / 118 40% 1 16.09.2026 -
Facundo Velazco San Marcos de Arica Ativo 98 / 99 40% 1 15.09.2026 -
Santiago Costa Albion Ativo 110 / 123 40% 1 15.09.2026 -
Pablo Bennevendo Pumas UNAM Ativo 123 / 121 40% 1 14.09.2026 -
Oscar Gonzalez Atletico Venezuela Ativo 81 / 104 40% 1 13.09.2026 -
Ramiro Brazionis Racing Ativo 105 / 89 40% 1 13.09.2026 -
Fredy Martínez Boston River Ativo 116 / 89 40% 1 11.09.2026 -
Victor Rincon Atletico Venezuela Ativo 95 / 119 40% 1 11.09.2026 -
Emmanuel Sabbi Vancouver Whitecaps Ativo 120 / 99 40% 1 10.09.2026 -
Renzo Reynaga Patronato Ativo 106 / 99 40% 1 10.09.2026 -
Hebert Vergara Liverpool Montevideo Ativo 89 / 94 40% 1 09.09.2026 -
Marcos Camarda Santiago Wanderers Ativo 101 / 106 40% 1 09.09.2026 -
David Morosini Juventud Ativo 93 / 102 40% 1 07.09.2026 -
Cristián Gutiérrez Union La Calera Ativo 99 / 97 40% 1 07.09.2026 -
Didier Bueno Jaguares Ativo 103 / 101 40% 1 06.09.2026 -
Juan Pablo Salomoni Union La Calera Ativo 106 / 94 40% 1 06.09.2026 -
Guillermo Larios Alianza Atletico Ativo 98 / 90 40% 1 05.09.2026 -
Alexander González Boston River Ativo 111 / 89 40% 1 05.09.2026 -
José Luis Caicedo Barranquilla Ativo 125 / 113 40% 2 02.09.2026 -
José Alvarado Leon Ativo 95 / 87 40% 1 02.09.2026 -
Agustín Módica Gimnasia y Esgrima Ativo 131 / 111 40% 1 02.09.2026 -
Óscar Díaz Miramar Misiones Ativo 95 / 126 40% 1 02.09.2026 -
Brayton Vázquez Morelia Ativo 99 / 125 40% 1 01.09.2026 -
Martín Gianoli Deportivo La Guaira Ativo 108 / 99 40% 1 01.09.2026 -
Mathías Rodríguez Cerrito Ativo 98 / 87 40% 1 29.08.2026 -
Juan Camilo Mosquera Atletico Bucaramanga Ativo 126 / 111 40% 1 29.08.2026 -
Kevin Tamayo Leones Ativo 110 / 97 40% 1 28.08.2026 -
Wilken Ramírez Estudiantes de Merida Ativo 96 / 99 40% 1 28.08.2026 -
Daniel Rangel Cortulua Ativo 113 / 129 40% 1 27.08.2026 -
Dewar Victoria Millonarios Ativo 113 / 101 40% 1 27.08.2026 -
Alan Cervantes Club America Ativo 142 / 136 40% 2 26.08.2026 -
Andrés Álvarez Aguilas Doradas Ativo 112 / 93 40% 1 26.08.2026 -
Facundo Pérez Juventud Ativo 111 / 98 40% 1 25.08.2026 -
Duván Mósquera Aguilas Doradas Ativo 104 / 117 40% 1 25.08.2026 -
Marcelo Flores Tigres Ativo 120 / 133 40% 1 25.08.2026 -
Vitinho River Plate Ativo 85 / 91 40% 1 25.08.2026 -
Nicolás Latorre Miramar Misiones Ativo 100 / 108 40% 1 23.08.2026 -
Rafael Sangiovani Metropolitanos Ativo 118 / 115 40% 1 23.08.2026 -
Franco Pérez Boston River Ativo 93 / 108 40% 1 22.08.2026 -
Adrián Vila Rampla Juniors Ativo 93 / 87 40% 1 22.08.2026 -
Kevin Zapata Cortulua Ativo 109 / 98 40% 1 22.08.2026 -
Carlos Adrián Sánchez Pachuca Ativo 90 / 99 40% 1 21.08.2026 -
Cristian Tovar America de Cali Ativo 111 / 115 40% 1 20.08.2026 -
Daniel Mera Union Magdalena Ativo 96 / 116 40% 1 20.08.2026 -
Iván Rojas Aguilas Doradas Ativo 113 / 113 40% 1 19.08.2026 -
Yesid Díaz Fortaleza CEIF Ativo 115 / 133 40% 2 17.08.2026 -
Juan Fernando Alfaro Olimpia Ativo 120 / 120 40% 1 17.08.2026 -
Facundo Vega Rentistas Ativo 108 / 81 40% 1 14.08.2026 -
Álvaro San Emeterio Tacuarembo Ativo 113 / 112 40% 1 14.08.2026 -
Brayan Murillo Envigado Ativo 100 / 113 40% 1 13.08.2026 -
José Pinto Mineros de Guayana Ativo 91 / 97 40% 1 13.08.2026 -
Marcos Mina America de Cali Ativo 110 / 97 40% 1 12.08.2026 -
Yolfran Caricote Metropolitanos Ativo 108 / 103 40% 1 12.08.2026 -
Cristián Mosquera Bogota Ativo 111 / 103 40% 1 11.08.2026 -
Andrés Olivera Colon Ativo 100 / 86 40% 1 10.08.2026 -
Maximiliano Centurión Sportivo Trinidense Ativo 98 / 110 40% 1 10.08.2026 -
Diogo Bagüí Tijuana Ativo 122 / 132 40% 1 09.08.2026 -
Francesco Cavagna UTC Ativo 85 / 97 40% 1 09.08.2026 -
Luciano Inverso Rentistas Ativo 120 / 104 40% 1 09.08.2026 -
Axel Pérez Cerrito Ativo 100 / 97 40% 1 09.08.2026 -
Nahuel de Armas Fenix Ativo 98 / 84 40% 1 07.08.2026 -
Bairon Monroy San Marcos de Arica Ativo 99 / 80 40% 1 07.08.2026 -
Everardo López Toluca Ativo 109 / 135 40% 1 07.08.2026 -
Gastón Benítez Nacional Ativo 112 / 101 40% 1 07.08.2026 -
Agustín Chopitea Colon Ativo 106 / 99 40% 1 06.08.2026 -
Facundo Krüger Temperley Ativo 123 / 120 40% 1 04.08.2026 -
Enrique Femia Danubio Ativo 120 / 110 40% 1 01.08.2026 -